sat.trackr.live / text

‹ back to catalog

STARLINK-5595

NORAD 55765 · 2023-028AA

PAYLOAD ACTIVE UNKNOWN

§ Identity

Operator
Country
US
Launch date
2023-03-03
Launch site
AFWTR
Launch vehicle
Mass (kg)
RCS (m²)

Purposes: comms

External: N2YO · Heavens-Above · Gunter

§ Orbital elements

Epoch: 2026-09-20T22:12:49.232448Z

Period
96.11 min
Inclination
69.9980°
Eccentricity
0.0002536
Mean motion
14.98331205 rev/d
Perigee alt
570.3 km
Apogee alt
573.8 km
Semi-major
6,950.2 km
B*
3.5450e-7
RAAN
92.3570°
Arg perigee
271.4038°
Mean anomaly
88.6831°
Rev number
19,577

§ Raw data

STARLINK-55951 55765U 23028AA  26263.92556982 -.00000089  00000+0  35450-6 0  99982 55765  69.9980  92.3570 0002536 271.4038  88.6831 14.98331205195777

JSON: /api/v1/satellites/55765 · /tle

For live sub-satellite position, see the globe view (requires WebGL).

§ Visibility from observer

Set your observer location to see the next 7 days of passes ≥ 10°. The values pass through the URL so the page stays shareable.

No JS? Fill the form by hand. The geolocation button needs JavaScript.